| time (UTC) | temp C | wind direction | speed KPH | gust KPH | rain 1hr cm | rain 24hr cm | rain mn cm | humidity % | barometer mb |
| 20260508025756 | 17 | 5 | 3.2 | 4.8 | 0.00 | 0.00 | 0.00 | 63 | 978.9 |
| 20260508025253 | 17 | 351 | 3.2 | 4.8 | 0.00 | 0.00 | 0.00 | 60 | 978.9 |
| 20260508024753 | 18 | 323 | 4.8 | 6.4 | 0.00 | 0.00 | 0.00 | 59 | 979.0 |
| 20260508024253 | 18 | 327 | 3.2 | 6.4 | 0.00 | 0.00 | 0.00 | 57 | 978.9 |
| 20260508023253 | 19 | 313 | 1.6 | 4.8 | 0.00 | 0.00 | 0.00 | 54 | 978.8 |
| 20260508022752 | 19 | 298 | 1.6 | 4.8 | 0.00 | 0.00 | 0.00 | 53 | 978.8 |
| 20260508021750 | 20 | 316 | 3.2 | 11.3 | 0.00 | 0.00 | 0.00 | 54 | 978.9 |
| 20260508020738 | 20 | 312 | 3.2 | 9.7 | 0.00 | 0.00 | 0.00 | 54 | 979.0 |
| 20260508020232 | 20 | 291 | 3.2 | 11.3 | 0.00 | 0.00 | 0.00 | 54 | 979.0 |
| 20260508015725 | 20 | 300 | 4.8 | 11.3 | 0.00 | 0.00 | 0.00 | 51 | 979.0 |
| 20260508015220 | 20 | 298 | 4.8 | 11.3 | 0.00 | 0.00 | 0.00 | 53 | 979.0 |
| 20260508014713 | 21 | 258 | 3.2 | 11.3 | 0.00 | 0.00 | 0.00 | 53 | 979.1 |
| 20260508014207 | 21 | 308 | 4.8 | 11.3 | 0.00 | 0.00 | 0.00 | 53 | 979.0 |
| 20260508013702 | 21 | 300 | 4.8 | 11.3 | 0.00 | 0.00 | 0.00 | 51 | 979.0 |
| 20260508013156 | 21 | 319 | 4.8 | 11.3 | 0.00 | 0.00 | 0.00 | 55 | 979.0 |
| 20260508012650 | 21 | 225 | 4.8 | 11.3 | 0.00 | 0.00 | 0.00 | 56 | 979.0 |
| 20260508012144 | 21 | 222 | 4.8 | 11.3 | 0.00 | 0.00 | 0.00 | 57 | 979.1 |
| 20260508011638 | 21 | 265 | 6.4 | 12.9 | 0.00 | 0.00 | 0.00 | 56 | 979.1 |
| 20260508011131 | 21 | 296 | 6.4 | 14.5 | 0.00 | 0.00 | 0.00 | 53 | 979.2 |
| 20260508010625 | 21 | 225 | 4.8 | 12.9 | 0.00 | 0.00 | 0.00 | 53 | 979.2 |
| 20260508005614 | 21 | 315 | 6.4 | 19.3 | 0.00 | 0.00 | 0.00 | 57 | 979.3 |
| 20260508005108 | 21 | 273 | 6.4 | 19.3 | 0.00 | 0.00 | 0.00 | 54 | 979.3 |
| 20260508004601 | 21 | 250 | 8.0 | 17.7 | 0.00 | 0.00 | 0.00 | 54 | 979.3 |
| 20260508004057 | 21 | 275 | 6.4 | 17.7 | 0.00 | 0.00 | 0.00 | 54 | 979.3 |
| 20260508003550 | 21 | 265 | 6.4 | 12.9 | 0.00 | 0.00 | 0.00 | 55 | 979.3 |
| 20260508003044 | 21 | 317 | 6.4 | 16.1 | 0.00 | 0.00 | 0.00 | 54 | 979.4 |
| 20260508002538 | 21 | 250 | 6.4 | 16.1 | 0.00 | 0.00 | 0.00 | 55 | 979.5 |
| 20260508002032 | 21 | 236 | 6.4 | 16.1 | 0.00 | 0.00 | 0.00 | 56 | 979.6 |
| 20260508001526 | 21 | 269 | 6.4 | 19.3 | 0.00 | 0.00 | 0.00 | 58 | 979.5 |
| 20260508000513 | 21 | 319 | 8.0 | 17.7 | 0.00 | 0.00 | 0.00 | 55 | 979.6 |
| 20260507235502 | 21 | 273 | 8.0 | 19.3 | 0.00 | 0.00 | 0.00 | 55 | 979.6 |
| 20260507234956 | 21 | 267 | 8.0 | 19.3 | 0.00 | 0.00 | 0.00 | 57 | 979.7 |
| 20260507233944 | 21 | 266 | 6.4 | 14.5 | 0.00 | 0.00 | 0.00 | 57 | 979.7 |
| 20260507233438 | 21 | 254 | 6.4 | 16.1 | 0.00 | 0.00 | 0.00 | 58 | 979.8 |
| 20260507232932 | 21 | 355 | 8.0 | 16.1 | 0.00 | 0.00 | 0.00 | 58 | 979.7 |
| 20260507232426 | 21 | 215 | 6.4 | 16.1 | 0.00 | 0.00 | 0.00 | 62 | 979.7 |
| 20260507231920 | 21 | 294 | 9.7 | 22.5 | 0.00 | 0.00 | 0.00 | 60 | 979.8 |
| 20260507231414 | 21 | 290 | 11.3 | 22.5 | 0.00 | 0.00 | 0.00 | 61 | 979.8 |
| 20260507230908 | 21 | 228 | 11.3 | 24.1 | 0.00 | 0.00 | 0.00 | 61 | 979.7 |
| 20260507230403 | 21 | 246 | 8.0 | 24.1 | 0.00 | 0.00 | 0.00 | 62 | 979.8 |
| 20260507225903 | 21 | 248 | 8.0 | 17.7 | 0.00 | 0.00 | 0.00 | 62 | 979.9 |
| 20260507225403 | 21 | 297 | 9.7 | 17.7 | 0.00 | 0.00 | 0.00 | 62 | 979.9 |
| 20260507224403 | 21 | 263 | 8.0 | 17.7 | 0.00 | 0.00 | 0.00 | 65 | 980.0 |
| 20260507223903 | 21 | 220 | 9.7 | 19.3 | 0.00 | 0.00 | 0.00 | 64 | 980.0 |
| 20260507223404 | 20 | 222 | 11.3 | 20.9 | 0.00 | 0.00 | 0.00 | 64 | 980.0 |
| 20260507222403 | 20 | 245 | 11.3 | 24.1 | 0.00 | 0.00 | 0.00 | 63 | 980.0 |
| 20260507221901 | 20 | 269 | 11.3 | 22.5 | 0.00 | 0.00 | 0.00 | 64 | 980.1 |
| 20260507221359 | 20 | 254 | 11.3 | 19.3 | 0.00 | 0.00 | 0.00 | 63 | 980.1 |
| 20260507220900 | 20 | 232 | 11.3 | 24.1 | 0.00 | 0.00 | 0.00 | 65 | 980.1 |
| 20260507215359 | 20 | 217 | 9.7 | 20.9 | 0.00 | 0.00 | 0.00 | 68 | 980.3 |
| 20260507214859 | 20 | 211 | 9.7 | 20.9 | 0.00 | 0.00 | 0.00 | 62 | 980.4 |
| 20260507214359 | 20 | 246 | 9.7 | 19.3 | 0.00 | 0.00 | 0.00 | 63 | 980.5 |
| 20260507213900 | 20 | 232 | 9.7 | 19.3 | 0.00 | 0.00 | 0.00 | 65 | 980.6 |
| 20260507213354 | 20 | 250 | 9.7 | 20.9 | 0.00 | 0.00 | 0.00 | 65 | 980.7 |
| 20260507212854 | 20 | 265 | 11.3 | 20.9 | 0.00 | 0.00 | 0.00 | 65 | 980.6 |
| 20260507212354 | 20 | 192 | 11.3 | 19.3 | 0.00 | 0.00 | 0.00 | 68 | 980.7 |
| 20260507211854 | 20 | 202 | 11.3 | 19.3 | 0.00 | 0.00 | 0.00 | 65 | 980.7 |
| 20260507211350 | 19 | 236 | 11.3 | 22.5 | 0.00 | 0.00 | 0.00 | 69 | 980.7 |
| 20260507210851 | 19 | 155 | 9.7 | 22.5 | 0.00 | 0.00 | 0.00 | 66 | 980.8 |
| 20260507210352 | 19 | 256 | 9.7 | 20.9 | 0.00 | 0.00 | 0.00 | 67 | 980.9 |
| 20260507205849 | 19 | 202 | 9.7 | 20.9 | 0.00 | 0.00 | 0.00 | 71 | 981.0 |
| 20260507205349 | 19 | 273 | 9.7 | 20.9 | 0.00 | 0.00 | 0.00 | 68 | 981.0 |
| 20260507204848 | 19 | 252 | 9.7 | 20.9 | 0.00 | 0.00 | 0.00 | 68 | 981.1 |
| 20260507204348 | 18 | 271 | 9.7 | 20.9 | 0.00 | 0.00 | 0.00 | 69 | 981.1 |
| 20260507203849 | 18 | 160 | 9.7 | 22.5 | 0.00 | 0.00 | 0.00 | 69 | 981.2 |
| 20260507203349 | 18 | 165 | 11.3 | 22.5 | 0.00 | 0.00 | 0.00 | 69 | 981.2 |
| 20260507202849 | 18 | 292 | 9.7 | 20.9 | 0.00 | 0.00 | 0.00 | 67 | 981.3 |
| 20260507202349 | 18 | 256 | 9.7 | 17.7 | 0.00 | 0.00 | 0.00 | 70 | 981.3 |
| 20260507201350 | 18 | 296 | 9.7 | 17.7 | 0.00 | 0.00 | 0.00 | 71 | 981.3 |
| 20260507200844 | 18 | 263 | 8.0 | 16.1 | 0.00 | 0.00 | 0.00 | 70 | 981.4 |
| 20260507200344 | 18 | 244 | 6.4 | 16.1 | 0.00 | 0.00 | 0.00 | 70 | 981.5 |
| 20260507195846 | 18 | 219 | 6.4 | 17.7 | 0.00 | 0.00 | 0.00 | 74 | 981.5 |
| 20260507194846 | 18 | 211 | 9.7 | 20.9 | 0.00 | 0.00 | 0.00 | 72 | 981.7 |
| 20260507194344 | 17 | 267 | 8.0 | 19.3 | 0.00 | 0.00 | 0.00 | 71 | 981.7 |
| 20260507193845 | 17 | 250 | 8.0 | 19.3 | 0.00 | 0.00 | 0.00 | 74 | 981.7 |
| 20260507193344 | 17 | 246 | 6.4 | 16.1 | 0.00 | 0.00 | 0.00 | 74 | 981.7 |
| 20260507192846 | 17 | 227 | 8.0 | 16.1 | 0.00 | 0.00 | 0.00 | 75 | 981.8 |
| 20260507191841 | 17 | 277 | 8.0 | 19.3 | 0.00 | 0.00 | 0.00 | 75 | 981.9 |
| 20260507191340 | 17 | 248 | 9.7 | 19.3 | 0.00 | 0.00 | 0.00 | 73 | 981.9 |
| 20260507190840 | 17 | 159 | 8.0 | 16.1 | 0.00 | 0.00 | 0.00 | 77 | 981.9 |
| 20260507190341 | 17 | 162 | 8.0 | 16.1 | 0.00 | 0.00 | 0.00 | 75 | 981.9 |
| 20260507185841 | 16 | 196 | 8.0 | 16.1 | 0.00 | 0.00 | 0.00 | 75 | 982.0 |
| 20260507184342 | 16 | 231 | 8.0 | 17.7 | 0.00 | 0.00 | 0.00 | 77 | 982.2 |
| 20260507183834 | 16 | 261 | 8.0 | 20.9 | 0.00 | 0.00 | 0.00 | 78 | 982.2 |
| 20260507183327 | 16 | 295 | 9.7 | 20.9 | 0.00 | 0.00 | 0.00 | 76 | 982.2 |
| 20260507182820 | 16 | 263 | 8.0 | 16.1 | 0.00 | 0.00 | 0.00 | 79 | 982.3 |
| 20260507182315 | 16 | 211 | 8.0 | 16.1 | 0.00 | 0.00 | 0.00 | 78 | 982.2 |
| 20260507181808 | 16 | 218 | 8.0 | 17.7 | 0.00 | 0.00 | 0.00 | 77 | 982.3 |
| 20260507181303 | 16 | 271 | 9.7 | 17.7 | 0.00 | 0.00 | 0.00 | 77 | 982.3 |
| 20260507180757 | 16 | 232 | 8.0 | 14.5 | 0.00 | 0.00 | 0.00 | 77 | 982.3 |
| 20260507180254 | 16 | 211 | 8.0 | 16.1 | 0.00 | 0.00 | 0.00 | 79 | 982.3 |
| 20260507175755 | 15 | 260 | 8.0 | 16.1 | 0.00 | 0.00 | 0.00 | 78 | 982.4 |
| 20260507175256 | 15 | 244 | 6.4 | 14.5 | 0.00 | 0.00 | 0.00 | 78 | 982.3 |
| 20260507174753 | 15 | 234 | 6.4 | 14.5 | 0.00 | 0.00 | 0.00 | 80 | 982.4 |
| 20260507174252 | 15 | 240 | 6.4 | 14.5 | 0.00 | 0.00 | 0.00 | 82 | 982.4 |
| 20260507173753 | 15 | 189 | 4.8 | 14.5 | 0.00 | 0.00 | 0.00 | 81 | 982.5 |
| 20260507173252 | 15 | 288 | 3.2 | 11.3 | 0.00 | 0.00 | 0.00 | 82 | 982.5 |
| 20260507172752 | 15 | 180 | 3.2 | 9.7 | 0.00 | 0.00 | 0.00 | 82 | 982.5 |
| 20260507171748 | 14 | 169 | 4.8 | 11.3 | 0.00 | 0.00 | 0.00 | 84 | 982.5 |
| 20260507171249 | 14 | 286 | 4.8 | 11.3 | 0.00 | 0.00 | 0.00 | 84 | 982.5 |
| 20260507170750 | 13 | 240 | 3.2 | 11.3 | 0.00 | 0.00 | 0.00 | 85 | 982.5 |
| 20260507165747 | 13 | 228 | 3.2 | 9.7 | 0.00 | 0.00 | 0.00 | 87 | 982.6 |
| 20260507165246 | 13 | 277 | 3.2 | 9.7 | 0.00 | 0.00 | 0.00 | 86 | 982.6 |
| 20260507164747 | 13 | 344 | 1.6 | 8.0 | 0.00 | 0.00 | 0.00 | 87 | 982.6 |
| 20260507164247 | 12 | 173 | 1.6 | 6.4 | 0.00 | 0.00 | 0.00 | 88 | 982.6 |
| 20260507163236 | 12 | 142 | 3.2 | 8.0 | 0.00 | 0.00 | 0.00 | 89 | 982.6 |
| 20260507161716 | 12 | 217 | 3.2 | 4.8 | 0.00 | 0.00 | 0.00 | 89 | 982.7 |
| 20260507161211 | 12 | 183 | 3.2 | 4.8 | 0.00 | 0.00 | 0.00 | 89 | 982.7 |
| 20260507160705 | 12 | 261 | 1.6 | 4.8 | 0.00 | 0.00 | 0.00 | 89 | 982.7 |
| 20260507160159 | 12 | 217 | 1.6 | 6.4 | 0.00 | 0.00 | 0.00 | 91 | 982.8 |
| 20260507155653 | 12 | 265 | 3.2 | 6.4 | 0.00 | 0.00 | 0.00 | 90 | 982.7 |
| 20260507154641 | 11 | 210 | 3.2 | 8.0 | 0.00 | 0.00 | 0.00 | 91 | 982.7 |
| 20260507153629 | 11 | 180 | 1.6 | 6.4 | 0.00 | 0.00 | 0.00 | 92 | 982.9 |
| 20260507153122 | 11 | 179 | 0.0 | 0.0 | 0.00 | 0.00 | 0.00 | 92 | 982.9 |
| 20260507152617 | 11 | 178 | 0.0 | 0.0 | 0.00 | 0.00 | 0.00 | 92 | 982.9 |
| 20260507152111 | 11 | 235 | 0.0 | 0.0 | 0.00 | 0.00 | 0.00 | 93 | 982.9 |
| 20260507151605 | 11 | 273 | 0.0 | 0.0 | 0.00 | 0.00 | 0.00 | 93 | 982.9 |
| 20260507150554 | 10 | 203 | 0.0 | 0.0 | 0.00 | 0.00 | 0.00 | 94 | 982.9 |
| 20260507150047 | 10 | 203 | 0.0 | 0.0 | 0.00 | 0.00 | 0.00 | 94 | 983.0 |
| 20260507145035 | 10 | 203 | 0.0 | 0.0 | 0.00 | 0.00 | 0.00 | 95 | 982.9 |
| 20260507144529 | 10 | 203 | 0.0 | 0.0 | 0.00 | 0.00 | 0.00 | 94 | 982.9 |
| 20260507143516 | 10 | 203 | 0.0 | 0.0 | 0.00 | 0.00 | 0.00 | 95 | 982.9 |
| 20260507143011 | 10 | 203 | 0.0 | 0.0 | 0.00 | 0.00 | 0.00 | 95 | 982.9 |
| 20260507142505 | 10 | 196 | 0.0 | 0.0 | 0.00 | 0.00 | 0.00 | 95 | 982.9 |
| 20260507141959 | 10 | 231 | 0.0 | 0.0 | 0.00 | 0.00 | 0.00 | 95 | 982.9 |
| 20260507141453 | 10 | 231 | 0.0 | 0.0 | 0.00 | 0.00 | 0.00 | 95 | 982.8 |
| 20260507140947 | 10 | 163 | 0.0 | 0.0 | 0.00 | 0.00 | 0.00 | 95 | 982.8 |
| 20260507140441 | 10 | 277 | 0.0 | 0.0 | 0.00 | 0.00 | 0.00 | 95 | 982.8 |
| 20260507135935 | 10 | 277 | 0.0 | 0.0 | 0.00 | 0.00 | 0.00 | 95 | 982.7 |
| 20260507135429 | 10 | 277 | 0.0 | 0.0 | 0.00 | 0.00 | 0.00 | 95 | 982.7 |
| 20260507134923 | 10 | 243 | 0.0 | 0.0 | 0.00 | 0.00 | 0.00 | 95 | 982.6 |
| 20260507134417 | 10 | 244 | 0.0 | 3.2 | 0.00 | 0.00 | 0.00 | 94 | 982.6 |
| 20260507133406 | 10 | 261 | 0.0 | 4.8 | 0.00 | 0.00 | 0.00 | 94 | 982.6 |
| 20260507132859 | 10 | 233 | 0.0 | 3.2 | 0.00 | 0.00 | 0.00 | 94 | 982.6 |
| 20260507132353 | 10 | 233 | 0.0 | 4.8 | 0.00 | 0.00 | 0.00 | 94 | 982.6 |
| 20260507131847 | 10 | 234 | 0.0 | 4.8 | 0.00 | 0.00 | 0.00 | 94 | 982.7 |
| 20260507131344 | 10 | 184 | 0.0 | 4.8 | 0.00 | 0.00 | 0.00 | 94 | 982.7 |
| 20260507130844 | 10 | 245 | 0.0 | 4.8 | 0.00 | 0.00 | 0.00 | 94 | 982.7 |
| 20260507130342 | 10 | 217 | 0.0 | 4.8 | 0.00 | 0.00 | 0.00 | 94 | 982.7 |
| 20260507125843 | 10 | 239 | 0.0 | 0.0 | 0.00 | 0.00 | 0.00 | 94 | 982.7 |
| 20260507125341 | 10 | 204 | 0.0 | 0.0 | 0.00 | 0.00 | 0.00 | 94 | 982.7 |
| 20260507124340 | 10 | 238 | 0.0 | 3.2 | 0.00 | 0.00 | 0.00 | 95 | 982.7 |
| 20260507123840 | 10 | 232 | 1.6 | 4.8 | 0.00 | 0.00 | 0.00 | 94 | 982.8 |
| 20260507123341 | 10 | 236 | 1.6 | 4.8 | 0.00 | 0.00 | 0.00 | 94 | 982.7 |
| 20260507122839 | 10 | 256 | 1.6 | 4.8 | 0.00 | 0.00 | 0.00 | 94 | 982.7 |
| 20260507122340 | 10 | 261 | 1.6 | 4.8 | 0.00 | 0.00 | 0.00 | 94 | 982.8 |
| 20260507121841 | 10 | 270 | 1.6 | 4.8 | 0.00 | 0.00 | 0.00 | 94 | 982.8 |
| 20260507121340 | 10 | 236 | 1.6 | 6.4 | 0.00 | 0.00 | 0.00 | 94 | 982.8 |
| 20260507120841 | 10 | 279 | 1.6 | 6.4 | 0.00 | 0.00 | 0.00 | 94 | 982.8 |
| 20260507120339 | 10 | 275 | 1.6 | 4.8 | 0.00 | 0.00 | 0.00 | 94 | 982.9 |
| 20260507115838 | 10 | 298 | 1.6 | 6.4 | 0.00 | 0.00 | 0.00 | 94 | 982.9 |
| 20260507115339 | 10 | 267 | 1.6 | 6.4 | 0.00 | 0.00 | 0.00 | 94 | 982.9 |
| 20260507114835 | 10 | 271 | 0.0 | 4.8 | 0.00 | 0.00 | 0.00 | 94 | 983.0 |
| 20260507113834 | 10 | 209 | 1.6 | 6.4 | 0.00 | 0.00 | 0.00 | 94 | 983.0 |
| 20260507113334 | 10 | 221 | 3.2 | 6.4 | 0.00 | 0.00 | 0.00 | 94 | 983.1 |
| 20260507112833 | 10 | 230 | 3.2 | 6.4 | 0.00 | 0.00 | 0.00 | 94 | 983.1 |
| 20260507112334 | 10 | 246 | 1.6 | 6.4 | 0.00 | 0.00 | 0.00 | 94 | 983.1 |
| 20260507111836 | 10 | 227 | 1.6 | 4.8 | 0.00 | 0.00 | 0.00 | 93 | 983.2 |
| 20260507110834 | 10 | 285 | 3.2 | 6.4 | 0.00 | 0.00 | 0.00 | 93 | 983.1 |
| 20260507105829 | 10 | 219 | 1.6 | 4.8 | 0.00 | 0.00 | 0.00 | 93 | 983.1 |
| 20260507105330 | 10 | 249 | 0.0 | 4.8 | 0.00 | 0.00 | 0.00 | 93 | 983.1 |
| 20260507104829 | 10 | 258 | 0.0 | 4.8 | 0.00 | 0.00 | 0.00 | 93 | 983.2 |
| 20260507104331 | 10 | 227 | 0.0 | 0.0 | 0.00 | 0.00 | 0.00 | 92 | 983.2 |
| 20260507103831 | 10 | 235 | 0.0 | 0.0 | 0.00 | 0.00 | 0.00 | 92 | 983.1 |
| 20260507103331 | 10 | 262 | 0.0 | 0.0 | 0.00 | 0.00 | 0.00 | 92 | 983.1 |
| 20260507102830 | 10 | 232 | 0.0 | 1.6 | 0.00 | 0.00 | 0.00 | 92 | 983.1 |
| 20260507102331 | 10 | 242 | 1.6 | 4.8 | 0.00 | 0.00 | 0.00 | 92 | 983.2 |
| 20260507101829 | 10 | 245 | 1.6 | 4.8 | 0.00 | 0.00 | 0.00 | 91 | 983.2 |
| 20260507100324 | 10 | 236 | 1.6 | 4.8 | 0.00 | 0.00 | 0.00 | 91 | 983.4 |
| 20260507095825 | 10 | 229 | 1.6 | 4.8 | 0.00 | 0.00 | 0.00 | 90 | 983.4 |
| 20260507095324 | 10 | 235 | 1.6 | 3.2 | 0.00 | 0.00 | 0.00 | 90 | 983.5 |
| 20260507094823 | 10 | 263 | 1.6 | 4.8 | 0.00 | 0.00 | 0.00 | 90 | 983.6 |
| 20260507094324 | 10 | 265 | 3.2 | 6.4 | 0.00 | 0.00 | 0.00 | 90 | 983.6 |
| 20260507093825 | 10 | 244 | 1.6 | 6.4 | 0.00 | 0.00 | 0.00 | 90 | 983.7 |
| 20260507093325 | 10 | 236 | 0.0 | 4.8 | 0.00 | 0.00 | 0.00 | 89 | 983.7 |
| 20260507092322 | 10 | 177 | 0.0 | 4.8 | 0.00 | 0.00 | 0.00 | 89 | 983.8 |
| 20260507091822 | 10 | 194 | 1.6 | 6.4 | 0.00 | 0.00 | 0.00 | 89 | 983.8 |
| 20260507091321 | 10 | 192 | 1.6 | 6.4 | 0.00 | 0.00 | 0.00 | 89 | 983.8 |
| 20260507090321 | 11 | 271 | 1.6 | 6.4 | 0.00 | 0.00 | 0.00 | 88 | 983.9 |
| 20260507085822 | 11 | 251 | 3.2 | 6.4 | 0.00 | 0.00 | 0.00 | 88 | 983.9 |
| 20260507085316 | 11 | 254 | 3.2 | 6.4 | 0.00 | 0.00 | 0.00 | 88 | 983.9 |
| 20260507084810 | 11 | 228 | 1.6 | 4.8 | 0.00 | 0.00 | 0.00 | 88 | 983.9 |
| 20260507084304 | 11 | 232 | 0.0 | 6.4 | 0.00 | 0.00 | 0.00 | 88 | 983.9 |
| 20260507083758 | 11 | 196 | 0.0 | 6.4 | 0.00 | 0.00 | 0.00 | 88 | 983.9 |
| 20260507083252 | 11 | 209 | 0.0 | 0.0 | 0.00 | 0.00 | 0.00 | 88 | 983.9 |
| 20260507082745 | 11 | 216 | 0.0 | 0.0 | 0.00 | 0.00 | 0.00 | 88 | 983.9 |
| 20260507082240 | 11 | 208 | 0.0 | 1.6 | 0.00 | 0.00 | 0.00 | 87 | 983.9 |
| 20260507081734 | 11 | 216 | 0.0 | 1.6 | 0.00 | 0.00 | 0.00 | 88 | 983.9 |
| 20260507081227 | 11 | 178 | 0.0 | 3.2 | 0.00 | 0.00 | 0.00 | 88 | 983.9 |
| 20260507080721 | 11 | 194 | 0.0 | 3.2 | 0.00 | 0.00 | 0.00 | 88 | 983.8 |
| 20260507080216 | 11 | 251 | 1.6 | 4.8 | 0.00 | 0.00 | 0.00 | 88 | 983.8 |
| 20260507075709 | 11 | 202 | 1.6 | 4.8 | 0.00 | 0.00 | 0.00 | 87 | 983.8 |
| 20260507075203 | 11 | 128 | 0.0 | 1.6 | 0.00 | 0.00 | 0.00 | 87 | 983.9 |
| 20260507074658 | 11 | 114 | 0.0 | 0.0 | 0.00 | 0.00 | 0.00 | 87 | 983.8 |
| 20260507074152 | 11 | 183 | 0.0 | 0.0 | 0.00 | 0.00 | 0.00 | 87 | 983.8 |
| 20260507073140 | 11 | 306 | 1.6 | 8.0 | 0.00 | 0.00 | 0.00 | 87 | 983.8 |
| 20260507072634 | 11 | 342 | 1.6 | 6.4 | 0.00 | 0.00 | 0.00 | 86 | 983.7 |
| 20260507072127 | 11 | 326 | 1.6 | 6.4 | 0.00 | 0.00 | 0.00 | 86 | 983.7 |
| 20260507071621 | 11 | 295 | 3.2 | 14.5 | 0.00 | 0.00 | 0.00 | 86 | 983.6 |
| 20260507071116 | 11 | 321 | 6.4 | 16.1 | 0.00 | 0.00 | 0.00 | 85 | 983.6 |
| 20260507070609 | 11 | 263 | 6.4 | 16.1 | 0.00 | 0.00 | 0.00 | 85 | 983.6 |
| 20260507070104 | 11 | 259 | 6.4 | 16.1 | 0.00 | 0.00 | 0.00 | 85 | 983.6 |
| 20260507065559 | 11 | 294 | 4.8 | 14.5 | 0.00 | 0.00 | 0.00 | 85 | 983.6 |
| 20260507065053 | 11 | 263 | 4.8 | 14.5 | 0.00 | 0.00 | 0.00 | 85 | 983.6 |
| 20260507064547 | 11 | 273 | 4.8 | 14.5 | 0.00 | 0.00 | 0.00 | 85 | 983.6 |
| 20260507064041 | 11 | 300 | 4.8 | 14.5 | 0.00 | 0.00 | 0.00 | 85 | 983.6 |
| 20260507063535 | 11 | 249 | 4.8 | 12.9 | 0.00 | 0.00 | 0.00 | 85 | 983.6 |
| 20260507063029 | 12 | 271 | 3.2 | 11.3 | 0.00 | 0.00 | 0.00 | 85 | 983.5 |
| 20260507062523 | 12 | 274 | 1.6 | 6.4 | 0.00 | 0.00 | 0.00 | 85 | 983.5 |
| 20260507062017 | 12 | 328 | 1.6 | 14.5 | 0.00 | 0.00 | 0.00 | 85 | 983.5 |
| 20260507061511 | 12 | 277 | 3.2 | 14.5 | 0.00 | 0.00 | 0.00 | 85 | 983.5 |
| 20260507061005 | 12 | 209 | 3.2 | 17.7 | 0.00 | 0.00 | 0.00 | 85 | 983.5 |
| 20260507060459 | 12 | 335 | 4.8 | 17.7 | 0.00 | 0.00 | 0.00 | 85 | 983.5 |
| 20260507055952 | 12 | 240 | 4.8 | 14.5 | 0.00 | 0.00 | 0.00 | 85 | 983.5 |
| 20260507055447 | 12 | 300 | 3.2 | 14.5 | 0.00 | 0.00 | 0.00 | 85 | 983.5 |
| 20260507054941 | 13 | 267 | 1.6 | 11.3 | 0.00 | 0.00 | 0.00 | 85 | 983.5 |
| 20260507054435 | 13 | 294 | 0.0 | 6.4 | 0.00 | 0.00 | 0.00 | 85 | 983.5 |
| 20260507053423 | 13 | 246 | 0.0 | 3.2 | 0.00 | 0.00 | 0.00 | 86 | 983.5 |
| 20260507052918 | 13 | 297 | 0.0 | 4.8 | 0.00 | 0.00 | 0.00 | 85 | 983.4 |
| 20260507052411 | 13 | 290 | 0.0 | 4.8 | 0.00 | 0.00 | 0.00 | 85 | 983.4 |
| 20260507051359 | 13 | 355 | 3.2 | 6.4 | 0.00 | 0.00 | 0.00 | 85 | 983.3 |
| 20260507050853 | 13 | 349 | 3.2 | 6.4 | 0.00 | 0.00 | 0.00 | 84 | 983.3 |
| 20260507050347 | 13 | 322 | 3.2 | 4.8 | 0.00 | 0.00 | 0.00 | 84 | 983.4 |
| 20260507045841 | 13 | 336 | 3.2 | 4.8 | 0.00 | 0.00 | 0.00 | 84 | 983.4 |
| 20260507045336 | 13 | 0 | 1.6 | 4.8 | 0.00 | 0.00 | 0.00 | 84 | 983.4 |
| 20260507044828 | 13 | 333 | 1.6 | 4.8 | 0.00 | 0.00 | 0.00 | 84 | 983.4 |
| 20260507044323 | 13 | 325 | 1.6 | 9.7 | 0.00 | 0.00 | 0.00 | 83 | 983.4 |
| 20260507043817 | 13 | 289 | 1.6 | 9.7 | 0.00 | 0.00 | 0.00 | 83 | 983.4 |
| 20260507043310 | 13 | 317 | 3.2 | 11.3 | 0.00 | 0.00 | 0.00 | 83 | 983.3 |
| 20260507042804 | 13 | 282 | 4.8 | 14.5 | 0.00 | 0.00 | 0.00 | 83 | 983.3 |
| 20260507042259 | 14 | 267 | 6.4 | 14.5 | 0.00 | 0.00 | 0.00 | 83 | 983.3 |
| 20260507041259 | 14 | 304 | 4.8 | 14.5 | 0.00 | 0.00 | 0.00 | 82 | 983.3 |
| 20260507040259 | 14 | 279 | 6.4 | 14.5 | 0.00 | 0.00 | 0.00 | 82 | 983.1 |
| 20260507035759 | 15 | 254 | 6.4 | 14.5 | 0.00 | 0.00 | 0.00 | 81 | 983.0 |
| 20260507035257 | 15 | 277 | 4.8 | 14.5 | 0.00 | 0.00 | 0.00 | 81 | 983.0 |
| 20260507034757 | 15 | 257 | 4.8 | 12.9 | 0.00 | 0.00 | 0.00 | 81 | 982.9 |
| 20260507033757 | 15 | 304 | 3.2 | 9.7 | 0.00 | 0.00 | 0.00 | 80 | 982.7 |
| 20260507033255 | 15 | 267 | 4.8 | 12.9 | 0.00 | 0.00 | 0.00 | 79 | 982.7 |
| 20260507032756 | 16 | 284 | 6.4 | 17.7 | 0.00 | 0.00 | 0.00 | 79 | 982.5 |
| 20260507032256 | 16 | 247 | 6.4 | 17.7 | 0.00 | 0.00 | 0.00 | 78 | 982.6 |
| 20260507031756 | 16 | 277 | 6.4 | 16.1 | 0.00 | 0.00 | 0.00 | 78 | 982.5 |
| 20260507031257 | 16 | 266 | 8.0 | 19.3 | 0.00 | 0.00 | 0.00 | 77 | 982.4 |
| 20260507030757 | 16 | 240 | 8.0 | 19.3 | 0.00 | 0.00 | 0.00 | 77 | 982.4 |
| 20260507030258 | 17 | 255 | 6.4 | 14.5 | 0.00 | 0.00 | 0.00 | 77 | 982.4 |